contact:dominique.lefevre@mio.osupytheas.fr, maurice.libes@osupytheas.fr, didier.mallarino@osupytheas.fr
Project:EMSO http://www.emso-fr.org/EMSO-France
Depth: 2436.0 m
Title:EMSO Ligure Ouest : Data MII capteur CSTAR
DateTime,Latitude,Longitude,Instrument_Serial,Reference_Counts,Signal_Counts,Corrected_Signal_raw_counts,Calculated_Beam_c_inverse_meters,Internal_thermistor_counts
DateTime,Latitude,Longitude,Instrument_Serial,Reference_Counts,Signal_Counts,Corrected_Signal_raw_counts,Calculated_Beam_c_inverse_meters,Internal_thermistor_counts
2023-12-29T00:01:25,42.805,6.029,CST-1368DR,4073,4288,11154,01.346,553
2023-12-29T00:04:27,42.805,6.029,CST-1368DR,4073,4289,11154,01.346,553
2023-12-29T00:07:28,42.805,6.029,CST-1368DR,4073,4288,11152,01.347,553
2023-12-29T00:10:30,42.805,6.029,CST-1368DR,4073,4289,11154,01.346,552
2023-12-29T00:13:32,42.805,6.029,CST-1368DR,4073,4288,11152,01.347,553
2023-12-29T00:16:33,42.805,6.029,CST-1368DR,4073,4289,11154,01.346,553
2023-12-29T00:19:35,42.805,6.029,CST-1368DR,4073,4289,11154,01.346,553
2023-12-29T00:22:36,42.805,6.029,CST-1368DR,4073,4290,11158,01.345,552
2023-12-29T00:25:38,42.805,6.029,CST-1368DR,4073,4288,11154,01.346,552
2023-12-29T00:28:39,42.805,6.029,CST-1368DR,4073,4285,11145,01.349,553
2023-12-29T00:31:41,42.805,6.029,CST-1368DR,4073,4285,11145,01.349,553
2023-12-29T00:34:43,42.805,6.029,CST-1368DR,4073,4288,11152,01.347,553
2023-12-29T00:37:44,42.805,6.029,CST-1368DR,4073,4290,11157,01.345,553
2023-12-29T00:40:46,42.805,6.029,CST-1368DR,4073,4289,11154,01.346,553
2023-12-29T00:43:47,42.805,6.029,CST-1368DR,4073,4288,11153,01.346,553
2023-12-29T00:46:49,42.805,6.029,CST-1368DR,4073,4289,11155,01.346,553
2023-12-29T00:49:50,42.805,6.029,CST-1368DR,4073,4290,11157,01.345,553
2023-12-29T00:52:52,42.805,6.029,CST-1368DR,4073,4289,11155,01.346,553
2023-12-29T00:55:54,42.805,6.029,CST-1368DR,4073,4287,11150,01.347,553
2023-12-29T00:58:55,42.805,6.029,CST-1368DR,4073,4288,11154,01.346,553
2023-12-29T01:01:57,42.805,6.029,CST-1368DR,4073,4289,11155,01.346,553
2023-12-29T01:04:58,42.805,6.029,CST-1368DR,4073,4289,11154,01.346,553
2023-12-29T01:08:00,42.805,6.029,CST-1368DR,4073,4290,11158,01.345,553
2023-12-29T01:11:02,42.805,6.029,CST-1368DR,4073,4290,11157,01.345,553
2023-12-29T01:14:03,42.805,6.029,CST-1368DR,4073,4288,11152,01.347,553
2023-12-29T01:17:05,42.805,6.029,CST-1368DR,4073,4288,11154,01.346,553
2023-12-29T01:20:06,42.805,6.029,CST-1368DR,4073,4287,11151,01.347,553
2023-12-29T01:23:08,42.805,6.029,CST-1368DR,4073,4288,11153,01.346,553
2023-12-29T01:26:09,42.805,6.029,CST-1368DR,4073,4287,11150,01.347,553
2023-12-29T01:29:11,42.805,6.029,CST-1368DR,4073,4287,11151,01.347,553
2023-12-29T01:32:13,42.805,6.029,CST-1368DR,4073,4286,11148,01.348,553
2023-12-29T01:35:14,42.805,6.029,CST-1368DR,4073,4286,11148,01.348,553
2023-12-29T01:38:16,42.805,6.029,CST-1368DR,4073,4276,11122,01.357,553
2023-12-29T01:41:17,42.805,6.029,CST-1368DR,4073,4287,11151,01.347,553
2023-12-29T01:44:19,42.805,6.029,CST-1368DR,4073,4287,11150,01.347,553
2023-12-29T01:47:20,42.805,6.029,CST-1368DR,4073,4288,11152,01.347,553
2023-12-29T01:50:22,42.805,6.029,CST-1368DR,4073,4288,11152,01.347,553
2023-12-29T01:53:24,42.805,6.029,CST-1368DR,4073,4287,11150,01.347,553
2023-12-29T01:56:25,42.805,6.029,CST-1368DR,4073,4287,11150,01.347,553
2023-12-29T01:59:27,42.805,6.029,CST-1368DR,4073,4288,11152,01.347,553
2023-12-29T02:02:28,42.805,6.029,CST-1368DR,4073,4288,11152,01.347,553
2023-12-29T02:05:30,42.805,6.029,CST-1368DR,4073,4286,11148,01.348,553
2023-12-29T02:08:32,42.805,6.029,CST-1368DR,4073,4279,11128,01.355,553
2023-12-29T02:11:33,42.805,6.029,CST-1368DR,4073,4283,11140,01.351,553
2023-12-29T02:14:35,42.805,6.029,CST-1368DR,4073,4287,11150,01.347,553
2023-12-29T02:17:36,42.805,6.029,CST-1368DR,4073,4284,11142,01.350,553
2023-12-29T02:20:38,42.805,6.029,CST-1368DR,4073,4285,11144,01.350,553
2023-12-29T02:23:39,42.805,6.029,CST-1368DR,4073,4283,11139,01.351,553
2023-12-29T02:26:41,42.805,6.029,CST-1368DR,4073,4281,11135,01.353,553
2023-12-29T02:29:43,42.805,6.029,CST-1368DR,4073,4281,11135,01.353,553
2023-12-29T02:32:44,42.805,6.029,CST-1368DR,4073,4281,11135,01.353,553
2023-12-29T02:35:46,42.805,6.029,CST-1368DR,4073,4285,11145,01.349,553
2023-12-29T02:38:47,42.805,6.029,CST-1368DR,4073,4283,11139,01.351,553
2023-12-29T02:41:49,42.805,6.029,CST-1368DR,4073,4283,11139,01.351,553
2023-12-29T02:44:50,42.805,6.029,CST-1368DR,4073,4284,11143,01.350,553
2023-12-29T02:47:52,42.805,6.029,CST-1368DR,4073,4283,11139,01.351,553
2023-12-29T02:50:54,42.805,6.029,CST-1368DR,4073,4286,11148,01.348,553
2023-12-29T02:53:55,42.805,6.029,CST-1368DR,4073,4281,11135,01.353,553
2023-12-29T02:56:57,42.805,6.029,CST-1368DR,4073,4280,11131,01.354,553
2023-12-29T02:59:58,42.805,6.029,CST-1368DR,4073,4282,11137,01.352,553
2023-12-29T03:03:00,42.805,6.029,CST-1368DR,4073,4288,11154,01.346,552
2023-12-29T03:06:02,42.805,6.029,CST-1368DR,4073,4289,11155,01.346,553
2023-12-29T03:09:03,42.805,6.029,CST-1368DR,4073,4288,11153,01.346,553
2023-12-29T03:12:05,42.805,6.029,CST-1368DR,4073,4288,11152,01.347,553
2023-12-29T03:15:06,42.805,6.029,CST-1368DR,4073,4288,11154,01.346,553
2023-12-29T03:18:08,42.805,6.029,CST-1368DR,4073,4290,11157,01.345,553
2023-12-29T03:21:09,42.805,6.029,CST-1368DR,4073,4288,11152,01.347,553
2023-12-29T03:24:11,42.805,6.029,CST-1368DR,4073,4287,11149,01.348,553
2023-12-29T03:27:13,42.805,6.029,CST-1368DR,4073,4290,11158,01.345,553
2023-12-29T03:30:14,42.805,6.029,CST-1368DR,4073,4290,11158,01.345,553
2023-12-29T03:33:16,42.805,6.029,CST-1368DR,4073,4288,11153,01.346,553
2023-12-29T03:36:17,42.805,6.029,CST-1368DR,4073,4288,11153,01.346,553
2023-12-29T03:39:19,42.805,6.029,CST-1368DR,4073,4289,11154,01.346,553
2023-12-29T03:42:20,42.805,6.029,CST-1368DR,4073,4287,11150,01.347,553
2023-12-29T03:45:22,42.805,6.029,CST-1368DR,4073,4295,11170,01.340,553
2023-12-29T03:48:24,42.805,6.029,CST-1368DR,4073,4286,11147,01.349,553
2023-12-29T03:51:25,42.805,6.029,CST-1368DR,4073,4291,11160,01.344,553
2023-12-29T03:54:27,42.805,6.029,CST-1368DR,4073,4290,11157,01.345,553
2023-12-29T03:57:28,42.805,6.029,CST-1368DR,4073,4288,11152,01.347,553
2023-12-29T04:00:30,42.805,6.029,CST-1368DR,4073,4289,11155,01.346,553
2023-12-29T04:03:32,42.805,6.029,CST-1368DR,4073,4288,11154,01.346,553
2023-12-29T04:06:33,42.805,6.029,CST-1368DR,4073,4288,11152,01.347,553
2023-12-29T04:09:35,42.805,6.029,CST-1368DR,4073,4287,11151,01.347,553
2023-12-29T04:12:36,42.805,6.029,CST-1368DR,4073,4288,11153,01.346,553
2023-12-29T04:15:38,42.805,6.029,CST-1368DR,4073,4287,11150,01.347,553
2023-12-29T04:18:39,42.805,6.029,CST-1368DR,4073,4282,11137,01.352,553
2023-12-29T04:21:41,42.805,6.029,CST-1368DR,4073,4289,11156,01.345,553
2023-12-29T04:24:43,42.805,6.029,CST-1368DR,4073,4287,11149,01.348,553
2023-12-29T04:27:44,42.805,6.029,CST-1368DR,4073,4286,11147,01.349,553
2023-12-29T04:30:46,42.805,6.029,CST-1368DR,4073,4287,11150,01.347,553
2023-12-29T04:33:47,42.805,6.029,CST-1368DR,4073,4287,11150,01.347,553
2023-12-29T04:36:49,42.805,6.029,CST-1368DR,4073,4287,11150,01.347,553
2023-12-29T04:39:50,42.805,6.029,CST-1368DR,4073,4287,11150,01.347,553
2023-12-29T04:42:52,42.805,6.029,CST-1368DR,4073,4288,11152,01.347,553
2023-12-29T04:45:54,42.805,6.029,CST-1368DR,4073,4287,11150,01.347,553
2023-12-29T04:48:55,42.805,6.029,CST-1368DR,4073,4289,11155,01.346,553
2023-12-29T04:51:57,42.805,6.029,CST-1368DR,4073,4289,11156,01.345,553
2023-12-29T04:54:58,42.805,6.029,CST-1368DR,4073,4290,11158,01.345,553
2023-12-29T04:58:00,42.805,6.029,CST-1368DR,4073,4289,11154,01.346,553
2023-12-29T05:01:02,42.805,6.029,CST-1368DR,4073,4288,11152,01.347,553
2023-12-29T05:04:03,42.805,6.029,CST-1368DR,4073,4289,11156,01.345,553
2023-12-29T05:07:05,42.805,6.029,CST-1368DR,4073,4290,11159,01.344,553
2023-12-29T05:10:06,42.805,6.029,CST-1368DR,4073,4289,11155,01.346,553
2023-12-29T05:13:08,42.805,6.029,CST-1368DR,4073,4290,11159,01.344,553
2023-12-29T05:16:09,42.805,6.029,CST-1368DR,4073,4289,11154,01.346,553
2023-12-29T05:19:11,42.805,6.029,CST-1368DR,4073,4283,11139,01.351,553
2023-12-29T05:22:13,42.805,6.029,CST-1368DR,4073,4287,11151,01.347,553
2023-12-29T05:25:14,42.805,6.029,CST-1368DR,4073,4287,11150,01.347,553
2023-12-29T05:28:16,42.805,6.029,CST-1368DR,4073,4289,11154,01.346,553
2023-12-29T05:31:17,42.805,6.029,CST-1368DR,4074,4290,11156,01.345,553
2023-12-29T05:34:19,42.805,6.029,CST-1368DR,4073,4290,11158,01.345,553
2023-12-29T05:37:20,42.805,6.029,CST-1368DR,4074,4323,11240,01.315,553
2023-12-29T05:40:22,42.805,6.029,CST-1368DR,4074,4324,11245,01.313,553
2023-12-29T05:43:23,42.805,6.029,CST-1368DR,4074,4323,11242,01.315,553
2023-12-29T05:46:25,42.805,6.029,CST-1368DR,4074,4323,11240,01.315,553
2023-12-29T05:49:26,42.805,6.029,CST-1368DR,4074,4323,11240,01.315,553
2023-12-29T05:52:28,42.805,6.029,CST-1368DR,4074,4323,11242,01.315,553
2023-12-29T05:55:30,42.805,6.029,CST-1368DR,4074,4322,11239,01.316,553
2023-12-29T05:58:31,42.805,6.029,CST-1368DR,4074,4322,11239,01.316,553
2023-12-29T06:01:33,42.805,6.029,CST-1368DR,4074,4322,11238,01.316,553
2023-12-29T06:04:34,42.805,6.029,CST-1368DR,4074,4321,11236,01.317,553
2023-12-29T06:07:36,42.805,6.029,CST-1368DR,4074,4321,11237,01.316,553
2023-12-29T06:10:37,42.805,6.029,CST-1368DR,4074,4321,11236,01.317,553
2023-12-29T06:13:39,42.805,6.029,CST-1368DR,4074,4323,11240,01.315,553
2023-12-29T06:16:41,42.805,6.029,CST-1368DR,4074,4321,11235,01.317,553
2023-12-29T06:19:42,42.805,6.029,CST-1368DR,4074,4320,11232,01.318,553
2023-12-29T06:22:44,42.805,6.029,CST-1368DR,4074,4315,11221,01.322,553
2023-12-29T06:25:45,42.805,6.029,CST-1368DR,4074,4314,11218,01.323,553
2023-12-29T06:28:47,42.805,6.029,CST-1368DR,4074,4315,11219,01.323,553
2023-12-29T06:31:49,42.805,6.029,CST-1368DR,4074,4315,11219,01.323,553
2023-12-29T06:34:50,42.805,6.029,CST-1368DR,4074,4311,11210,01.326,553
2023-12-29T06:37:52,42.805,6.029,CST-1368DR,4074,4312,11213,01.325,553
2023-12-29T06:40:53,42.805,6.029,CST-1368DR,4074,4309,11204,01.328,553
2023-12-29T06:43:55,42.805,6.029,CST-1368DR,4074,4309,11204,01.328,553
2023-12-29T06:46:56,42.805,6.029,CST-1368DR,4074,4306,11198,01.330,553
2023-12-29T06:49:58,42.805,6.029,CST-1368DR,4073,4306,11200,01.330,553
2023-12-29T06:53:00,42.805,6.029,CST-1368DR,4074,4302,11187,01.334,553
2023-12-29T06:56:01,42.805,6.029,CST-1368DR,4074,4300,11182,01.336,553
2023-12-29T06:59:03,42.805,6.029,CST-1368DR,4073,4298,11178,01.337,553
2023-12-29T07:02:04,42.805,6.029,CST-1368DR,4073,4298,11179,01.337,553
2023-12-29T07:05:06,42.805,6.029,CST-1368DR,4074,4295,11169,01.341,553
2023-12-29T07:08:07,42.805,6.029,CST-1368DR,4074,4294,11167,01.341,553
2023-12-29T07:11:09,42.805,6.029,CST-1368DR,4073,4294,11167,01.341,553
2023-12-29T07:14:11,42.805,6.029,CST-1368DR,4073,4293,11165,01.342,553
2023-12-29T07:17:12,42.805,6.029,CST-1368DR,4073,4293,11165,01.342,553
2023-12-29T07:20:14,42.805,6.029,CST-1368DR,4073,4292,11163,01.343,553
2023-12-29T07:23:15,42.805,6.029,CST-1368DR,4073,4292,11163,01.343,553
2023-12-29T07:26:17,42.805,6.029,CST-1368DR,4074,4292,11159,01.344,553
2023-12-29T07:29:19,42.805,6.029,CST-1368DR,4074,4289,11152,01.347,553
2023-12-29T07:32:20,42.805,6.029,CST-1368DR,4073,4291,11159,01.344,553
2023-12-29T07:35:22,42.805,6.029,CST-1368DR,4073,4289,11156,01.345,553
2023-12-29T07:38:23,42.805,6.029,CST-1368DR,4073,4288,11153,01.346,553
2023-12-29T07:41:25,42.805,6.029,CST-1368DR,4073,4287,11151,01.347,553
2023-12-29T07:44:27,42.805,6.029,CST-1368DR,4073,4290,11157,01.345,553
2023-12-29T07:47:28,42.805,6.029,CST-1368DR,4074,4291,11157,01.345,553
2023-12-29T07:50:30,42.805,6.029,CST-1368DR,4074,4288,11151,01.347,553
2023-12-29T07:53:31,42.805,6.029,CST-1368DR,4073,4289,11154,01.346,553
2023-12-29T07:56:33,42.805,6.029,CST-1368DR,4073,4291,11160,01.344,553
2023-12-29T07:59:34,42.805,6.029,CST-1368DR,4073,4288,11152,01.347,553
2023-12-29T08:02:36,42.805,6.029,CST-1368DR,4073,4288,11152,01.347,552
2023-12-29T08:05:38,42.805,6.029,CST-1368DR,4073,4290,11158,01.345,553
2023-12-29T08:08:39,42.805,6.029,CST-1368DR,4073,4290,11159,01.344,553
2023-12-29T08:11:41,42.805,6.029,CST-1368DR,4073,4291,11160,01.344,553
2023-12-29T08:14:42,42.805,6.029,CST-1368DR,4073,4291,11161,01.343,553
2023-12-29T08:17:44,42.805,6.029,CST-1368DR,4073,4290,11158,01.345,553
2023-12-29T08:20:46,42.805,6.029,CST-1368DR,4074,4291,11158,01.345,553
2023-12-29T08:23:47,42.805,6.029,CST-1368DR,4074,4295,11169,01.341,553
2023-12-29T08:26:49,42.805,6.029,CST-1368DR,4074,4294,11166,01.342,553
2023-12-29T08:29:50,42.805,6.029,CST-1368DR,4074,4294,11167,01.341,553
2023-12-29T08:32:52,42.805,6.029,CST-1368DR,4073,4293,11166,01.342,553
2023-12-29T08:35:53,42.805,6.029,CST-1368DR,4073,4293,11166,01.342,553
2023-12-29T08:38:55,42.805,6.029,CST-1368DR,4073,4291,11161,01.343,553
2023-12-29T08:41:57,42.805,6.029,CST-1368DR,4073,4292,11162,01.343,553
2023-12-29T08:44:58,42.805,6.029,CST-1368DR,4073,4291,11160,01.344,553
2023-12-29T08:48:00,42.805,6.029,CST-1368DR,4073,4290,11159,01.344,553
2023-12-29T08:51:01,42.805,6.029,CST-1368DR,4073,4291,11160,01.344,553
2023-12-29T08:54:03,42.805,6.029,CST-1368DR,4073,4291,11159,01.344,553
2023-12-29T08:57:04,42.805,6.029,CST-1368DR,4074,4293,11162,01.343,553
2023-12-29T09:00:06,42.805,6.029,CST-1368DR,4073,4289,11155,01.346,553
2023-12-29T09:03:08,42.805,6.029,CST-1368DR,4073,4291,11159,01.344,553
2023-12-29T09:06:09,42.805,6.029,CST-1368DR,4073,4289,11156,01.345,553
2023-12-29T09:09:11,42.805,6.029,CST-1368DR,4073,4289,11156,01.345,553
2023-12-29T09:12:12,42.805,6.029,CST-1368DR,4073,4288,11152,01.347,553
2023-12-29T09:15:14,42.805,6.029,CST-1368DR,4073,4289,11154,01.346,553
2023-12-29T09:18:15,42.805,6.029,CST-1368DR,4073,4289,11154,01.346,553
2023-12-29T09:21:17,42.805,6.029,CST-1368DR,4073,4285,11145,01.349,553
2023-12-29T09:24:19,42.805,6.029,CST-1368DR,4073,4286,11148,01.348,553
2023-12-29T09:27:20,42.805,6.029,CST-1368DR,4073,4289,11154,01.346,553
2023-12-29T09:30:23,42.805,6.029,CST-1368DR,4073,4289,11155,01.346,553
2023-12-29T09:33:25,42.805,6.029,CST-1368DR,4073,4288,11154,01.346,553
2023-12-29T09:36:27,42.805,6.029,CST-1368DR,4073,4289,11156,01.345,553
2023-12-29T09:39:28,42.805,6.029,CST-1368DR,4073,4287,11151,01.347,553
2023-12-29T09:42:30,42.805,6.029,CST-1368DR,4073,4290,11157,01.345,553
2023-12-29T09:45:31,42.805,6.029,CST-1368DR,4073,4288,11154,01.346,553
2023-12-29T09:48:33,42.805,6.029,CST-1368DR,4073,4289,11155,01.346,553
2023-12-29T09:51:34,42.805,6.029,CST-1368DR,4073,4290,11158,01.345,553
2023-12-29T09:54:36,42.805,6.029,CST-1368DR,4073,4289,11156,01.345,553
2023-12-29T09:57:38,42.805,6.029,CST-1368DR,4073,4288,11152,01.347,553
2023-12-29T10:00:39,42.805,6.029,CST-1368DR,4073,4288,11153,01.346,553
2023-12-29T10:03:41,42.805,6.029,CST-1368DR,4073,4288,11154,01.346,553
2023-12-29T10:06:42,42.805,6.029,CST-1368DR,4073,4289,11155,01.346,553
2023-12-29T10:09:44,42.805,6.029,CST-1368DR,4073,4289,11154,01.346,553
2023-12-29T10:12:45,42.805,6.029,CST-1368DR,4073,4290,11159,01.344,553
2023-12-29T10:15:47,42.805,6.029,CST-1368DR,4073,4290,11158,01.345,553
2023-12-29T10:18:49,42.805,6.029,CST-1368DR,4073,4288,11153,01.346,553
2023-12-29T10:21:50,42.805,6.029,CST-1368DR,4073,4290,11158,01.345,553
2023-12-29T10:24:52,42.805,6.029,CST-1368DR,4073,4287,11150,01.347,553
2023-12-29T10:27:53,42.805,6.029,CST-1368DR,4073,4289,11156,01.345,553
2023-12-29T10:30:55,42.805,6.029,CST-1368DR,4073,4288,11152,01.347,553
2023-12-29T10:33:57,42.805,6.029,CST-1368DR,4073,4287,11149,01.348,553
2023-12-29T10:36:58,42.805,6.029,CST-1368DR,4073,4288,11154,01.346,553
2023-12-29T10:40:00,42.805,6.029,CST-1368DR,4073,4289,11156,01.345,553
2023-12-29T10:43:01,42.805,6.029,CST-1368DR,4073,4290,11158,01.345,553
2023-12-29T10:46:03,42.805,6.029,CST-1368DR,4074,4288,11150,01.347,553
2023-12-29T10:49:04,42.805,6.029,CST-1368DR,4073,4289,11156,01.345,553
2023-12-29T10:52:06,42.805,6.029,CST-1368DR,4073,4290,11157,01.345,553
2023-12-29T10:55:08,42.805,6.029,CST-1368DR,4073,4291,11160,01.344,553
2023-12-29T10:58:09,42.805,6.029,CST-1368DR,4073,4290,11158,01.345,553
2023-12-29T11:01:11,42.805,6.029,CST-1368DR,4073,4286,11147,01.349,553
2023-12-29T11:04:12,42.805,6.029,CST-1368DR,4073,4289,11155,01.346,553
2023-12-29T11:07:14,42.805,6.029,CST-1368DR,4073,4289,11155,01.346,553
2023-12-29T11:10:15,42.805,6.029,CST-1368DR,4073,4288,11152,01.347,553
2023-12-29T11:13:17,42.805,6.029,CST-1368DR,4073,4289,11155,01.346,553
2023-12-29T11:16:19,42.805,6.029,CST-1368DR,4073,4286,11148,01.348,553
2023-12-29T11:19:20,42.805,6.029,CST-1368DR,4073,4286,11148,01.348,553
2023-12-29T11:22:22,42.805,6.029,CST-1368DR,4073,4286,11148,01.348,553
2023-12-29T11:25:23,42.805,6.029,CST-1368DR,4073,4284,11143,01.350,553
2023-12-29T11:28:25,42.805,6.029,CST-1368DR,4073,4286,11147,01.349,553
2023-12-29T11:31:27,42.805,6.029,CST-1368DR,4073,4286,11148,01.348,553
2023-12-29T11:34:28,42.805,6.029,CST-1368DR,4073,4288,11153,01.346,553
2023-12-29T11:37:30,42.805,6.029,CST-1368DR,4073,4287,11150,01.347,553
2023-12-29T11:40:31,42.805,6.029,CST-1368DR,4073,4284,11143,01.350,553
2023-12-29T11:43:33,42.805,6.029,CST-1368DR,4073,4287,11150,01.347,553
2023-12-29T11:46:35,42.805,6.029,CST-1368DR,4073,4288,11154,01.346,553
2023-12-29T11:49:36,42.805,6.029,CST-1368DR,4073,4282,11136,01.352,553
2023-12-29T11:52:38,42.805,6.029,CST-1368DR,4073,4287,11150,01.347,553
2023-12-29T11:55:39,42.805,6.029,CST-1368DR,4073,4289,11156,01.345,553
2023-12-29T11:58:41,42.805,6.029,CST-1368DR,4073,4287,11150,01.347,553
2023-12-29T12:01:42,42.805,6.029,CST-1368DR,4073,4288,11154,01.346,553
2023-12-29T12:04:44,42.805,6.029,CST-1368DR,4073,4290,11157,01.345,553
2023-12-29T12:07:46,42.805,6.029,CST-1368DR,4073,4289,11155,01.346,553
2023-12-29T12:10:47,42.805,6.029,CST-1368DR,4073,4287,11150,01.347,553
2023-12-29T12:13:49,42.805,6.029,CST-1368DR,4073,4287,11151,01.347,553
2023-12-29T12:16:50,42.805,6.029,CST-1368DR,4073,4288,11152,01.347,553
2023-12-29T12:19:52,42.805,6.029,CST-1368DR,4073,4285,11146,01.349,553
2023-12-29T12:22:53,42.805,6.029,CST-1368DR,4073,4287,11150,01.347,553
2023-12-29T12:25:55,42.805,6.029,CST-1368DR,4073,4287,11150,01.347,553
2023-12-29T12:28:57,42.805,6.029,CST-1368DR,4073,4288,11153,01.346,553
2023-12-29T12:31:58,42.805,6.029,CST-1368DR,4073,4286,11148,01.348,553
2023-12-29T12:35:00,42.805,6.029,CST-1368DR,4073,4288,11153,01.346,553
2023-12-29T12:38:01,42.805,6.029,CST-1368DR,4073,4288,11153,01.346,553
2023-12-29T12:41:03,42.805,6.029,CST-1368DR,4073,4287,11150,01.347,553
2023-12-29T12:44:05,42.805,6.029,CST-1368DR,4073,4287,11150,01.347,553
2023-12-29T12:47:06,42.805,6.029,CST-1368DR,4073,4288,11152,01.347,553
2023-12-29T12:50:08,42.805,6.029,CST-1368DR,4073,4288,11152,01.347,553
2023-12-29T12:53:09,42.805,6.029,CST-1368DR,4073,4284,11143,01.350,553
2023-12-29T12:56:11,42.805,6.029,CST-1368DR,4073,4286,11147,01.349,553
2023-12-29T12:59:12,42.805,6.029,CST-1368DR,4073,4286,11148,01.348,553
2023-12-29T13:02:14,42.805,6.029,CST-1368DR,4073,4289,11154,01.346,553
2023-12-29T13:05:16,42.805,6.029,CST-1368DR,4073,4280,11133,01.354,553
2023-12-29T13:08:17,42.805,6.029,CST-1368DR,4073,4279,11130,01.355,553
2023-12-29T13:11:19,42.805,6.029,CST-1368DR,4073,4279,11130,01.355,553
2023-12-29T13:14:20,42.805,6.029,CST-1368DR,4073,4278,11127,01.356,553
2023-12-29T13:17:22,42.805,6.029,CST-1368DR,4073,4281,11133,01.354,553
2023-12-29T13:20:23,42.805,6.029,CST-1368DR,4073,4281,11135,01.353,553
2023-12-29T13:23:25,42.805,6.029,CST-1368DR,4073,4284,11143,01.350,553
2023-12-29T13:26:27,42.805,6.029,CST-1368DR,4073,4279,11128,01.355,553
2023-12-29T13:29:28,42.805,6.029,CST-1368DR,4073,4279,11130,01.355,553
2023-12-29T13:32:30,42.805,6.029,CST-1368DR,4073,4278,11126,01.356,553
2023-12-29T13:35:32,42.805,6.029,CST-1368DR,4073,4279,11128,01.355,553
2023-12-29T13:38:33,42.805,6.029,CST-1368DR,4073,4280,11132,01.354,553
2023-12-29T13:41:35,42.805,6.029,CST-1368DR,4073,4277,11125,01.356,553
2023-12-29T13:44:36,42.805,6.029,CST-1368DR,4073,4274,11117,01.359,553
2023-12-29T13:47:38,42.805,6.029,CST-1368DR,4073,4278,11126,01.356,553
2023-12-29T13:50:39,42.805,6.029,CST-1368DR,4073,4278,11128,01.355,553
2023-12-29T13:53:41,42.805,6.029,CST-1368DR,4073,4278,11128,01.355,553
2023-12-29T13:56:43,42.805,6.029,CST-1368DR,4073,4278,11127,01.356,553
2023-12-29T13:59:44,42.805,6.029,CST-1368DR,4073,4278,11126,01.356,553
2023-12-29T14:02:46,42.805,6.029,CST-1368DR,4073,4277,11124,01.357,553
2023-12-29T14:05:47,42.805,6.029,CST-1368DR,4073,4284,11143,01.350,553
2023-12-29T14:08:49,42.805,6.029,CST-1368DR,4073,4281,11135,01.353,553
2023-12-29T14:11:50,42.805,6.029,CST-1368DR,4073,4279,11130,01.355,553
2023-12-29T14:14:52,42.805,6.029,CST-1368DR,4073,4279,11128,01.355,553
2023-12-29T14:17:54,42.805,6.029,CST-1368DR,4073,4285,11144,01.350,553
2023-12-29T14:20:55,42.805,6.029,CST-1368DR,4073,4285,11145,01.349,553
2023-12-29T14:23:57,42.805,6.029,CST-1368DR,4073,4286,11147,01.349,553
2023-12-29T14:26:58,42.805,6.029,CST-1368DR,4073,4287,11150,01.347,553
2023-12-29T14:30:00,42.805,6.029,CST-1368DR,4073,4288,11153,01.346,553
2023-12-29T14:33:02,42.805,6.029,CST-1368DR,4073,4287,11150,01.347,553
2023-12-29T14:36:03,42.805,6.029,CST-1368DR,4073,4289,11154,01.346,553
2023-12-29T14:39:05,42.805,6.029,CST-1368DR,4073,4289,11155,01.346,553
2023-12-29T14:42:06,42.805,6.029,CST-1368DR,4073,4289,11155,01.346,553
2023-12-29T14:45:08,42.805,6.029,CST-1368DR,4073,4290,11157,01.345,553
2023-12-29T14:48:09,42.805,6.029,CST-1368DR,4073,4289,11154,01.346,553
2023-12-29T14:51:11,42.805,6.029,CST-1368DR,4073,4289,11154,01.346,553
2023-12-29T14:54:13,42.805,6.029,CST-1368DR,4073,4290,11158,01.345,552
2023-12-29T14:57:14,42.805,6.029,CST-1368DR,4073,4288,11154,01.346,553
2023-12-29T15:00:16,42.805,6.029,CST-1368DR,4073,4287,11149,01.348,553
2023-12-29T15:03:17,42.805,6.029,CST-1368DR,4073,4287,11149,01.348,553
2023-12-29T15:06:19,42.805,6.029,CST-1368DR,4073,4288,11152,01.347,553
2023-12-29T15:09:20,42.805,6.029,CST-1368DR,4073,4289,11154,01.346,553
2023-12-29T15:12:22,42.805,6.029,CST-1368DR,4073,4285,11146,01.349,553
2023-12-29T15:15:24,42.805,6.029,CST-1368DR,4073,4287,11150,01.347,553
2023-12-29T15:18:25,42.805,6.029,CST-1368DR,4073,4289,11154,01.346,553
2023-12-29T15:21:27,42.805,6.029,CST-1368DR,4073,4291,11160,01.344,553
2023-12-29T15:24:28,42.805,6.029,CST-1368DR,4073,4287,11149,01.348,553
2023-12-29T15:27:30,42.805,6.029,CST-1368DR,4073,4288,11154,01.346,553
2023-12-29T15:30:34,42.805,6.029,CST-1368DR,4073,4289,11154,01.346,553
2023-12-29T15:33:36,42.805,6.029,CST-1368DR,4073,4286,11148,01.348,553
2023-12-29T15:36:37,42.805,6.029,CST-1368DR,4073,4286,11147,01.349,553
2023-12-29T15:39:39,42.805,6.029,CST-1368DR,4073,4287,11150,01.347,553
2023-12-29T15:42:40,42.805,6.029,CST-1368DR,4073,4287,11150,01.347,553
2023-12-29T15:45:42,42.805,6.029,CST-1368DR,4073,4287,11151,01.347,553
2023-12-29T15:48:43,42.805,6.029,CST-1368DR,4073,4290,11157,01.345,553
2023-12-29T15:51:45,42.805,6.029,CST-1368DR,4073,4287,11150,01.347,553
2023-12-29T15:54:47,42.805,6.029,CST-1368DR,4073,4289,11155,01.346,553
2023-12-29T15:57:48,42.805,6.029,CST-1368DR,4073,4288,11153,01.346,553
2023-12-29T16:00:50,42.805,6.029,CST-1368DR,4073,4290,11158,01.345,553
2023-12-29T16:03:51,42.805,6.029,CST-1368DR,4073,4289,11154,01.346,553
2023-12-29T16:06:53,42.805,6.029,CST-1368DR,4073,4289,11155,01.346,553
2023-12-29T16:09:54,42.805,6.029,CST-1368DR,4073,4287,11151,01.347,553
2023-12-29T16:12:56,42.805,6.029,CST-1368DR,4073,4288,11154,01.346,553
2023-12-29T16:15:58,42.805,6.029,CST-1368DR,4073,4288,11152,01.347,553
2023-12-29T16:18:59,42.805,6.029,CST-1368DR,4073,4290,11157,01.345,553
2023-12-29T16:22:01,42.805,6.029,CST-1368DR,4073,4289,11156,01.345,553
2023-12-29T16:25:02,42.805,6.029,CST-1368DR,4073,4290,11158,01.345,553
2023-12-29T16:28:04,42.805,6.029,CST-1368DR,4073,4290,11159,01.344,553
2023-12-29T16:31:06,42.805,6.029,CST-1368DR,4073,4290,11158,01.345,553
2023-12-29T16:34:07,42.805,6.029,CST-1368DR,4073,4290,11157,01.345,553
2023-12-29T16:37:09,42.805,6.029,CST-1368DR,4073,4290,11157,01.345,553